Location: Finkenbach
(49.5340°N, 8.9188°E)
Time: 16:19:23
(UTC+00:00)

SPOT 3 Rocket - Pass Details

Date: 17 June 2025
Orbit: 776 x 789 km, 98.5° (Epoch: 20 July)

Event Time Altitude Azimuth Distance (km) Brightness Sun altitude
Exits shadow 21:19:02 - 187° (S) 2,367 5.6 -11.8°
Reaches altitude 10° 21:19:09 10° 187° (S) 2,324 5.5 -11.8°
Maximum altitude 21:24:04 46° 261° (W) 1,037 4.3 -12.2°
Drops below altitude 10° 21:29:04 10° 335° (NNW) 2,349 7.5 -12.6°
Sets 21:31:29 0° 341° (NNW) 3,284 8.7 -12.8°
